Eden Prairie, MN

4:15 AM CST on February 09, 2016 (GMT -0600)
Flying Cloud

Weather History for KFCM - October, 2010

Change the Weather History Date:

Friday, October 15, 2010

  Actual Average Record
Temperature  
Mean Temperature 50 °F -  
Max Temperature 62 °F 57 °F 66 °F (1999)
Min Temperature 39 °F 37 °F 26 °F (2006)
Degree Days  
Heating Degree Days 15    
Moisture  
Dew Point 37 °F    
Average Humidity 60    
Maximum Humidity 83    
Minimum Humidity 41    
Precipitation  
Precipitation 0.00 in - - ()
Sea Level Pressure  
Sea Level Pressure 30.07 in    
Wind  
Wind Speed 5 mph (ESE)    
Max Wind Speed 10 mph    
Max Gust Speed -    
Visibility 10 miles    
Events      
Averages and records for this station are not official NWS values.
T = Trace of Precipitation, MM = Missing Value Source: NWS Daily Summary

Daily Weather History Graph

Daily Weather History Graph

Search for Another Location

Airport or City:

Trip Planner

Search our weather history database for the weather conditions in past years. The results will help you decide how hot, cold, wet, or windy it might be!

Date:

Astronomy

Oct. 15, 2010 Rise Set
Actual Time 7:29 AM CDT 6:29 PM CDT
Civil Twilight 6:59 AM CDT 6:58 PM CDT
Nautical Twilight 6:25 AM CDT 7:32 PM CDT
Astronomical Twilight 5:51 AM CDT 8:06 PM CDT
Moon 3:08 PM CDT (10/15) 12:04 AM CDT (10/15)
Length of Visible Light 11h 58m
Length of Day
10h 59m
First Quarter, 58% of the Moon is Illuminated
Oct 15
First Quarter
Oct 22
Full
Oct 30
Last Quarter
Nov 5
New
Nov 13
First Quarter

Hourly Weather History & Observations

Time (CDT) Temp. Windchill Dew Point Humidity Pressure Visibility Wind Dir Wind Speed Gust Speed Precip Events Conditions
12:53 AM 48.9 °F - 35.1 °F 59% 30.02 in 10.0 mi North 4.6 mph - N/A   Clear
1:53 AM 48.0 °F - 35.1 °F 61% 30.03 in 10.0 mi North 3.5 mph - N/A   Clear
2:53 AM 46.0 °F 43.1 °F 35.1 °F 66% 30.06 in 10.0 mi NNW 5.8 mph - N/A   Clear
3:53 AM 45.0 °F 41.8 °F 35.1 °F 68% 30.06 in 10.0 mi North 5.8 mph - N/A   Clear
4:53 AM 44.1 °F 41.5 °F 35.1 °F 71% 30.07 in 10.0 mi North 4.6 mph - N/A   Clear
5:53 AM 43.0 °F 40.3 °F 35.1 °F 74% 30.09 in 10.0 mi North 4.6 mph - N/A   Clear
6:53 AM 43.0 °F 41.3 °F 36.0 °F 76% 30.11 in 10.0 mi NNE 3.5 mph - N/A   Clear
7:53 AM 39.9 °F - 35.1 °F 83% 30.13 in 10.0 mi Calm Calm - N/A   Clear
8:53 AM 46.0 °F - 37.9 °F 73% 30.15 in 10.0 mi Calm Calm - N/A   Clear
9:53 AM 51.1 °F - 37.9 °F 61% 30.16 in 10.0 mi Calm Calm - N/A   Clear
10:53 AM 53.1 °F - 39.0 °F 59% 30.16 in 10.0 mi Variable 3.5 mph - N/A   Clear
12:53 PM 57.9 °F - 37.9 °F 47% 30.14 in 10.0 mi Variable 4.6 mph - N/A   Clear
1:53 PM 59.0 °F - 37.0 °F 44% 30.12 in 10.0 mi SSE 5.8 mph - N/A   Clear
2:53 PM 61.0 °F - 37.0 °F 41% 30.09 in 10.0 mi South 5.8 mph - N/A   Clear
3:53 PM 61.0 °F - 37.0 °F 41% 30.07 in 10.0 mi South 8.1 mph - N/A   Clear
4:53 PM 61.0 °F - 37.0 °F 41% 30.05 in 10.0 mi SSE 10.4 mph - N/A   Clear
5:53 PM 59.0 °F - 37.0 °F 44% 30.03 in 10.0 mi SSE 8.1 mph - N/A   Clear
6:53 PM 53.1 °F - 37.9 °F 57% 30.03 in 10.0 mi SE 6.9 mph - N/A   Clear
7:53 PM 54.0 °F - 37.0 °F 53% 30.02 in 10.0 mi SE 6.9 mph - N/A   Clear
8:53 PM 48.9 °F - 37.0 °F 64% 30.01 in 10.0 mi SE 6.9 mph - N/A   Clear
9:53 PM 48.0 °F - 37.9 °F 68% 30.01 in 10.0 mi SE 6.9 mph - N/A   Clear
10:53 PM 48.9 °F - 37.9 °F 66% 30.00 in 10.0 mi SE 9.2 mph - N/A   Clear
11:53 PM 48.9 °F - 37.9 °F 66% 29.98 in 10.0 mi SSE 8.1 mph - N/A   Clear